CPA105 VHHH-YMML

Flight info

Callsign CPA105
Flight time N/A
Altitude 37000
Route DALOL V642 NOMAN A461 AVMUP W16 MIA DCT LIGPA B472 COT/N0489F390 R590 BUTPA A461 ADKUL DCT 1053S13024E 1530S13159E 1708S13232E DCT KIKAN/N0481F410 DCT 2403S13521E 2730S13720E 2918S13834E 3229S14102E DCT NATYA H119 ARBEY
Aircraft A359/H-SDE2E3GHIJ3J4J5LM1ORWXY/LB1D1

Departure

Time 2026-05-06 06:36
Airport Hong Kong International Airport (VHHH)

Arrival

Time N/A
Airport Melbourne Airport (YMML)
Time Latitude Longitude Altitude Speed Heading
2026-05-06 06:14 22.31110 113.92738 38 ft 0 kts 296°
2026-05-06 06:22 22.31109 113.92739 38 ft 2 kts 296°
2026-05-06 06:22 22.31099 113.92763 34 ft 2 kts 296°
2026-05-06 06:22 22.31089 113.92785 35 ft 4 kts 291°
2026-05-06 06:23 22.31081 113.92813 38 ft 4 kts 277°
2026-05-06 06:23 22.31083 113.92840 38 ft 4 kts 238°
2026-05-06 06:23 22.31100 113.92855 37 ft 4 kts 206°
2026-05-06 06:23 22.31125 113.92868 37 ft 4 kts 206°
2026-05-06 06:24 22.31145 113.92878 34 ft 4 kts 204°
2026-05-06 06:24 22.31169 113.92890 35 ft 4 kts 225°
2026-05-06 06:24 22.31179 113.92910 36 ft 4 kts 251°
2026-05-06 06:24 22.31187 113.92935 34 ft 1 kts 251°
2026-05-06 06:25 22.31187 113.92936 35 ft 0 kts 251°
2026-05-06 06:27 22.31187 113.92934 34 ft 1 kts 251°
2026-05-06 06:27 22.31171 113.92899 34 ft 8 kts 227°
2026-05-06 06:28 22.31097 113.92853 38 ft 16 kts 205°
2026-05-06 06:28 22.30974 113.92789 38 ft 23 kts 206°
2026-05-06 06:28 22.30835 113.92697 38 ft 24 kts 236°
2026-05-06 06:28 22.30776 113.92528 38 ft 24 kts 250°
2026-05-06 06:29 22.30719 113.92354 38 ft 25 kts 250°
2026-05-06 06:29 22.30662 113.92176 38 ft 25 kts 250°
2026-05-06 06:29 22.30604 113.91995 38 ft 26 kts 251°
2026-05-06 06:29 22.30545 113.91811 38 ft 26 kts 251°
2026-05-06 06:30 22.30486 113.91625 38 ft 26 kts 250°
2026-05-06 06:30 22.30425 113.91437 38 ft 27 kts 251°
2026-05-06 06:30 22.30365 113.91246 38 ft 27 kts 251°
2026-05-06 06:30 22.30302 113.91055 38 ft 27 kts 249°
2026-05-06 06:31 22.30238 113.90863 38 ft 27 kts 250°
2026-05-06 06:31 22.30216 113.90710 38 ft 5 kts 308°
2026-05-06 06:31 22.30256 113.90680 38 ft 8 kts 335°
2026-05-06 06:31 22.30321 113.90663 38 ft 11 kts 342°
2026-05-06 06:32 22.30409 113.90631 38 ft 15 kts 342°
2026-05-06 06:32 22.30522 113.90591 38 ft 19 kts 340°
2026-05-06 06:32 22.30653 113.90541 38 ft 22 kts 341°
2026-05-06 06:32 22.30806 113.90483 38 ft 23 kts 340°
2026-05-06 06:33 22.30960 113.90425 38 ft 24 kts 341°
2026-05-06 06:33 22.31078 113.90354 38 ft 14 kts 285°
2026-05-06 06:33 22.31056 113.90259 38 ft 13 kts 251°
2026-05-06 06:33 22.31025 113.90160 38 ft 15 kts 251°
2026-05-06 06:34 22.30990 113.90054 38 ft 16 kts 250°
2026-05-06 06:34 22.30953 113.89939 38 ft 17 kts 251°
2026-05-06 06:34 22.30942 113.89827 37 ft 14 kts 300°
2026-05-06 06:34 22.31025 113.89779 36 ft 15 kts 343°
2026-05-06 06:35 22.31098 113.89823 36 ft 10 kts 68°
2026-05-06 06:35 22.31120 113.89887 36 ft 34 kts 69°
2026-05-06 06:35 22.31268 113.90345 37 ft 94 kts 71°
2026-05-06 06:35 22.31541 113.91192 38 ft 144 kts 70°
2026-05-06 06:36 22.31903 113.92328 322 ft 161 kts 73°
2026-05-06 06:36 22.32251 113.93449 1001 ft 159 kts 74°
2026-05-06 06:36 22.32612 113.94634 1405 ft 172 kts 73°
2026-05-06 06:36 22.33002 113.95885 1788 ft 180 kts 73°
2026-05-06 06:37 22.33402 113.97203 2129 ft 191 kts 77°
2026-05-06 06:37 22.33691 113.98671 2366 ft 209 kts 81°
2026-05-06 06:37 22.33834 114.00270 2773 ft 217 kts 92°
2026-05-06 06:37 22.33720 114.01349 3134 ft 219 kts 103°
2026-05-06 06:38 22.33155 114.02892 3616 ft 226 kts 123°
2026-05-06 06:38 22.32108 114.04187 4146 ft 233 kts 142°
2026-05-06 06:38 22.30753 114.05170 4624 ft 237 kts 151°
2026-05-06 06:38 22.29336 114.06071 5280 ft 236 kts 151°
2026-05-06 06:39 22.27915 114.06975 5872 ft 239 kts 151°
2026-05-06 06:39 22.26474 114.07900 6408 ft 243 kts 152°
2026-05-06 06:39 22.24917 114.08596 6926 ft 243 kts 172°
2026-05-06 06:39 22.23222 114.08726 7416 ft 251 kts 182°
2026-05-06 06:40 22.21415 114.08702 7727 ft 268 kts 184°
2026-05-06 06:40 22.19519 114.08665 8229 ft 277 kts 183°
2026-05-06 06:40 22.17574 114.08850 8825 ft 286 kts 168°
2026-05-06 06:40 22.15799 114.09852 9471 ft 296 kts 140°
2026-05-06 06:41 22.14554 114.11651 10074 ft 305 kts 121°
2026-05-06 06:41 22.13549 114.13736 10374 ft 322 kts 118°
2026-05-06 06:41 22.12527 114.15959 10630 ft 339 kts 118°
2026-05-06 06:41 22.11449 114.18283 10897 ft 354 kts 118°
2026-05-06 06:42 22.10315 114.20699 11160 ft 368 kts 119°
2026-05-06 06:42 22.09137 114.23194 11535 ft 376 kts 119°
2026-05-06 06:42 22.07819 114.25636 11994 ft 379 kts 129°
2026-05-06 06:42 22.05954 114.27620 12496 ft 377 kts 145°
2026-05-06 06:43 22.03848 114.29317 12974 ft 380 kts 147°
2026-05-06 06:43 22.01693 114.30995 13477 ft 384 kts 148°
2026-05-06 06:43 21.99522 114.32687 13941 ft 387 kts 147°
2026-05-06 06:43 21.97365 114.34375 14340 ft 390 kts 147°
2026-05-06 06:44 21.95160 114.36109 14743 ft 394 kts 147°
2026-05-06 06:44 21.92940 114.37858 15140 ft 397 kts 147°
2026-05-06 06:44 21.90699 114.39619 15539 ft 401 kts 147°
2026-05-06 06:44 21.88439 114.41394 15943 ft 404 kts 147°
2026-05-06 06:45 21.86263 114.43329 16327 ft 410 kts 136°
2026-05-06 06:45 21.84579 114.45831 16707 ft 417 kts 118°
2026-05-06 06:45 21.83569 114.48768 17106 ft 421 kts 107°
2026-05-06 06:45 21.82784 114.51812 17492 ft 424 kts 105°
2026-05-06 06:46 21.82016 114.54886 17896 ft 427 kts 105°
2026-05-06 06:46 21.81236 114.57980 18275 ft 429 kts 105°
2026-05-06 06:46 21.80444 114.61085 18591 ft 432 kts 105°
2026-05-06 06:46 21.79639 114.64215 18894 ft 435 kts 106°
2026-05-06 06:47 21.78827 114.67366 19202 ft 439 kts 106°
2026-05-06 06:47 21.78007 114.70533 19543 ft 441 kts 106°
2026-05-06 06:47 21.77180 114.73723 19892 ft 443 kts 106°
2026-05-06 06:47 21.76349 114.76926 20233 ft 446 kts 106°
2026-05-06 06:48 21.75512 114.80146 20572 ft 449 kts 106°
2026-05-06 06:48 21.74581 114.83358 20912 ft 451 kts 112°
2026-05-06 06:48 21.73137 114.86342 21259 ft 451 kts 124°
2026-05-06 06:48 21.71379 114.89136 21605 ft 452 kts 128°
2026-05-06 06:49 21.69485 114.91842 21976 ft 454 kts 130°
2026-05-06 06:49 21.67526 114.94520 22343 ft 456 kts 131°
2026-05-06 06:49 21.65550 114.97198 22691 ft 459 kts 131°
2026-05-06 06:49 21.63572 114.99898 23035 ft 462 kts 130°
2026-05-06 06:50 21.61600 115.02633 23395 ft 463 kts 130°
2026-05-06 06:50 21.59628 115.05385 23707 ft 466 kts 130°
2026-05-06 06:50 21.57653 115.08153 23985 ft 469 kts 130°
2026-05-06 06:50 21.55668 115.10942 24263 ft 472 kts 130°
2026-05-06 06:51 21.53670 115.13754 24560 ft 475 kts 130°
2026-05-06 06:51 21.51665 115.16582 24848 ft 477 kts 130°
2026-05-06 06:51 21.49648 115.19424 25161 ft 480 kts 130°
2026-05-06 06:51 21.47614 115.22284 25473 ft 484 kts 130°
2026-05-06 06:52 21.45563 115.25163 25787 ft 487 kts 130°
2026-05-06 06:52 21.43501 115.28056 26111 ft 490 kts 130°
2026-05-06 06:52 21.41424 115.30970 26437 ft 493 kts 130°
2026-05-06 06:52 21.39333 115.33902 26762 ft 496 kts 130°
2026-05-06 06:53 21.37234 115.36845 27093 ft 498 kts 130°
2026-05-06 06:53 21.35150 115.39766 27418 ft 501 kts 130°
2026-05-06 06:53 21.33024 115.42742 27727 ft 504 kts 130°
2026-05-06 06:53 21.30883 115.45738 28036 ft 507 kts 130°
2026-05-06 06:54 21.28732 115.48748 28327 ft 510 kts 130°
2026-05-06 06:54 21.26565 115.51778 28646 ft 513 kts 130°
2026-05-06 06:54 21.24387 115.54821 28944 ft 516 kts 130°
2026-05-06 06:54 21.22196 115.57882 29243 ft 519 kts 130°
2026-05-06 06:55 21.19991 115.60959 29535 ft 522 kts 130°
2026-05-06 06:55 21.17772 115.64055 29824 ft 525 kts 130°
2026-05-06 06:55 21.15546 115.67160 30092 ft 528 kts 130°
2026-05-06 06:55 21.13301 115.70288 30343 ft 530 kts 130°
2026-05-06 06:56 21.11053 115.73421 30612 ft 531 kts 130°
2026-05-06 06:56 21.08798 115.76560 30861 ft 533 kts 130°
2026-05-06 06:56 21.06530 115.79715 31100 ft 535 kts 130°
2026-05-06 06:56 21.04256 115.82878 31346 ft 537 kts 130°
2026-05-06 06:57 21.01975 115.86048 31585 ft 539 kts 130°
2026-05-06 06:57 20.99686 115.89227 31788 ft 540 kts 130°
2026-05-06 06:57 20.97391 115.92413 32068 ft 541 kts 130°
2026-05-06 06:57 20.95093 115.95602 32298 ft 542 kts 130°
2026-05-06 06:58 20.92788 115.98799 32520 ft 543 kts 130°
2026-05-06 06:58 20.90474 116.02005 32708 ft 545 kts 130°
2026-05-06 06:58 20.88160 116.05211 32950 ft 545 kts 130°
2026-05-06 06:58 20.85726 116.08316 33232 ft 542 kts 136°
2026-05-06 06:59 20.82942 116.11002 33493 ft 537 kts 146°
2026-05-06 06:59 20.79903 116.13302 33768 ft 535 kts 149°
2026-05-06 06:59 20.76799 116.15490 34014 ft 534 kts 151°
2026-05-06 06:59 20.73665 116.17619 34240 ft 533 kts 151°
2026-05-06 07:00 20.70529 116.19718 34455 ft 532 kts 152°
2026-05-06 07:00 20.67386 116.21815 34681 ft 532 kts 152°
2026-05-06 07:00 20.64251 116.23913 34876 ft 532 kts 151°
2026-05-06 07:00 20.61121 116.26014 35092 ft 531 kts 151°
2026-05-06 07:01 20.58005 116.28114 35375 ft 529 kts 151°
2026-05-06 07:01 20.54903 116.30209 35593 ft 528 kts 151°
2026-05-06 07:01 20.51845 116.32275 35784 ft 527 kts 151°
2026-05-06 07:01 20.48707 116.34396 35976 ft 527 kts 151°
2026-05-06 07:02 20.45610 116.36487 36163 ft 526 kts 151°
2026-05-06 07:02 20.42515 116.38576 36341 ft 526 kts 151°
2026-05-06 07:02 20.39426 116.40660 36522 ft 526 kts 151°
2026-05-06 07:02 20.36376 116.42716 36691 ft 525 kts 151°
2026-05-06 07:03 20.33290 116.44795 36872 ft 525 kts 151°
2026-05-06 07:03 20.27094 116.48964 36926 ft 528 kts 150°
2026-05-06 07:04 20.20891 116.53137 36928 ft 526 kts 150°
2026-05-06 07:04 20.14709 116.57292 36921 ft 526 kts 151°
2026-05-06 07:05 20.08535 116.61438 36926 ft 524 kts 151°
2026-05-06 07:05 20.02382 116.65595 36921 ft 525 kts 148°
2026-05-06 07:06 19.96900 116.70762 36923 ft 529 kts 136°
2026-05-06 07:06 19.91869 116.76483 36919 ft 530 kts 134°
2026-05-06 07:07 19.86914 116.82290 36917 ft 530 kts 134°
2026-05-06 07:07 19.81951 116.88086 36923 ft 530 kts 135°
2026-05-06 07:08 19.76975 116.93857 36920 ft 529 kts 135°
2026-05-06 07:08 19.71995 116.99614 36916 ft 529 kts 135°
2026-05-06 07:09 19.67017 117.05361 36916 ft 529 kts 135°
2026-05-06 07:09 19.62036 117.11106 36921 ft 529 kts 135°
2026-05-06 07:10 19.57052 117.16851 36924 ft 528 kts 135°
2026-05-06 07:10 19.52118 117.22535 36921 ft 526 kts 135°
2026-05-06 07:11 19.47164 117.28234 36920 ft 526 kts 135°
2026-05-06 07:11 19.42208 117.33930 36919 ft 526 kts 135°
2026-05-06 07:12 19.37247 117.39626 36916 ft 526 kts 135°
2026-05-06 07:12 19.32287 117.45316 36914 ft 526 kts 135°
2026-05-06 07:13 19.27330 117.50997 36909 ft 525 kts 135°
2026-05-06 07:13 19.22378 117.56667 36908 ft 524 kts 135°
2026-05-06 07:14 19.17426 117.62331 36910 ft 523 kts 135°
2026-05-06 07:14 19.12482 117.67980 36908 ft 523 kts 135°
2026-05-06 07:15 19.07537 117.73626 36904 ft 523 kts 135°
2026-05-06 07:15 19.02591 117.79268 36905 ft 523 kts 135°
2026-05-06 07:16 18.97675 117.84872 36902 ft 523 kts 135°
2026-05-06 07:16 18.92726 117.90505 36900 ft 523 kts 135°
2026-05-06 07:17 18.87773 117.96136 36898 ft 523 kts 135°
2026-05-06 07:17 18.82819 118.01765 36898 ft 523 kts 135°
2026-05-06 07:18 18.77874 118.07379 36896 ft 522 kts 135°
2026-05-06 07:18 18.72928 118.12988 36896 ft 522 kts 135°
2026-05-06 07:19 18.67979 118.18596 36891 ft 522 kts 135°
2026-05-06 07:19 18.63031 118.24197 36889 ft 522 kts 135°
2026-05-06 07:20 18.58083 118.29794 36888 ft 522 kts 135°
2026-05-06 07:20 18.53131 118.35390 36891 ft 522 kts 135°
2026-05-06 07:21 18.48177 118.40983 36887 ft 522 kts 135°
2026-05-06 07:21 18.43224 118.46570 36899 ft 521 kts 135°
2026-05-06 07:22 18.38270 118.52152 36897 ft 521 kts 135°
2026-05-06 07:22 18.33321 118.57725 36885 ft 521 kts 135°
2026-05-06 07:23 18.28399 118.63262 36882 ft 521 kts 135°
2026-05-06 07:23 18.23452 118.68822 36885 ft 521 kts 135°
2026-05-06 07:24 18.18459 118.74428 36901 ft 521 kts 135°
2026-05-06 07:24 18.13550 118.79936 36899 ft 521 kts 135°
2026-05-06 07:25 18.08545 118.85545 36891 ft 520 kts 135°
2026-05-06 07:25 18.03630 118.91051 36890 ft 520 kts 135°
2026-05-06 07:26 17.98348 118.96174 36891 ft 515 kts 148°
2026-05-06 07:26 17.92245 119.00054 36887 ft 512 kts 154°
2026-05-06 07:27 17.86018 119.03659 36885 ft 512 kts 154°
2026-05-06 07:27 17.79760 119.07235 36886 ft 512 kts 154°
2026-05-06 07:28 17.74529 119.10244 36883 ft 512 kts 154°
2026-05-06 07:28 17.65183 119.15646 36885 ft 511 kts 154°
2026-05-06 07:29 17.58962 119.19244 36886 ft 511 kts 154°
2026-05-06 07:29 17.52776 119.22817 36885 ft 511 kts 154°
2026-05-06 07:30 17.46551 119.26410 36884 ft 511 kts 154°
2026-05-06 07:30 17.40329 119.29997 36885 ft 510 kts 154°
2026-05-06 07:31 17.34118 119.33575 36888 ft 509 kts 154°
2026-05-06 07:31 17.27912 119.37148 36888 ft 509 kts 154°
2026-05-06 07:32 17.21707 119.40717 36886 ft 509 kts 154°
2026-05-06 07:32 17.15497 119.44287 36887 ft 509 kts 154°
2026-05-06 07:33 17.09293 119.47850 36874 ft 509 kts 154°
2026-05-06 07:33 17.03092 119.51409 36884 ft 508 kts 154°
2026-05-06 07:34 16.96905 119.54958 36882 ft 507 kts 154°
2026-05-06 07:34 16.90723 119.58500 36884 ft 507 kts 154°
2026-05-06 07:35 16.84540 119.62040 36884 ft 507 kts 154°
2026-05-06 07:35 16.78356 119.65578 36884 ft 507 kts 154°
2026-05-06 07:36 16.72175 119.69113 36883 ft 506 kts 154°
2026-05-06 07:36 16.65999 119.72642 36887 ft 506 kts 154°
2026-05-06 07:37 16.59826 119.76166 36884 ft 506 kts 154°
2026-05-06 07:37 16.53649 119.79689 36884 ft 506 kts 154°
2026-05-06 07:38 16.47471 119.83211 36892 ft 506 kts 154°
2026-05-06 07:38 16.41300 119.86727 36892 ft 505 kts 154°
2026-05-06 07:39 16.35174 119.90214 36893 ft 505 kts 154°
2026-05-06 07:39 16.29007 119.93722 36895 ft 505 kts 154°
2026-05-06 07:40 16.22834 119.97230 36895 ft 505 kts 154°
2026-05-06 07:40 16.16664 120.00735 36895 ft 505 kts 154°
2026-05-06 07:41 16.10491 120.04239 36896 ft 505 kts 154°
2026-05-06 07:41 16.04329 120.07734 36896 ft 504 kts 154°
2026-05-06 07:42 15.98174 120.11225 36900 ft 504 kts 154°
2026-05-06 07:42 15.92024 120.14705 36903 ft 503 kts 154°
2026-05-06 07:43 15.85877 120.18185 36905 ft 503 kts 154°
2026-05-06 07:43 15.79728 120.21663 36912 ft 503 kts 154°
2026-05-06 07:44 15.73583 120.25136 36913 ft 503 kts 153°
2026-05-06 07:44 15.67441 120.28606 36917 ft 502 kts 153°
2026-05-06 07:45 15.61343 120.32051 36920 ft 502 kts 153°
2026-05-06 07:45 15.55161 120.35536 36918 ft 502 kts 154°
2026-05-06 07:46 15.49064 120.38977 36916 ft 502 kts 153°
2026-05-06 07:46 15.42887 120.42459 36923 ft 502 kts 154°
2026-05-06 07:47 15.36788 120.45895 36931 ft 502 kts 153°
2026-05-06 07:47 15.30645 120.49345 36935 ft 502 kts 154°
2026-05-06 07:48 15.24504 120.52793 36938 ft 502 kts 153°
2026-05-06 07:48 15.18361 120.56243 36938 ft 502 kts 153°
2026-05-06 07:49 15.12402 120.60046 36940 ft 504 kts 148°
2026-05-06 07:49 15.06615 120.64147 36931 ft 504 kts 147°
2026-05-06 07:50 15.00812 120.68213 36922 ft 503 kts 148°
2026-05-06 07:50 14.94980 120.72211 36913 ft 503 kts 148°
2026-05-06 07:51 14.89129 120.76186 36898 ft 503 kts 148°
2026-05-06 07:51 14.83277 120.80154 36898 ft 503 kts 148°
2026-05-06 07:52 14.77432 120.84120 36894 ft 503 kts 148°
2026-05-06 07:52 14.71580 120.88089 36892 ft 503 kts 148°
2026-05-06 07:53 14.65730 120.92064 36892 ft 503 kts 148°
2026-05-06 07:53 14.59879 120.96024 36911 ft 503 kts 148°
2026-05-06 07:54 14.54011 120.99950 36907 ft 502 kts 151°
2026-05-06 07:54 14.47610 121.02675 36913 ft 497 kts 169°
2026-05-06 07:55 14.40853 121.04158 36908 ft 496 kts 171°
2026-05-06 07:55 14.34053 121.05420 36904 ft 497 kts 172°
2026-05-06 07:56 14.27238 121.06672 36898 ft 497 kts 171°
2026-05-06 07:56 14.20429 121.07951 36895 ft 497 kts 171°
2026-05-06 07:57 14.13623 121.09244 36895 ft 497 kts 171°
2026-05-06 07:57 14.06861 121.10532 36894 ft 497 kts 171°
2026-05-06 07:58 14.00057 121.11825 36894 ft 497 kts 171°
2026-05-06 07:58 13.93386 121.13722 36897 ft 499 kts 160°
2026-05-06 07:59 13.86958 121.16443 36896 ft 500 kts 158°
2026-05-06 07:59 13.80572 121.19299 36895 ft 500 kts 158°
2026-05-06 08:00 13.74189 121.22161 36892 ft 500 kts 158°
2026-05-06 08:00 13.67806 121.25007 36896 ft 500 kts 158°
2026-05-06 08:01 13.61428 121.27832 36895 ft 498 kts 158°
2026-05-06 08:01 13.55062 121.30649 36897 ft 498 kts 158°
2026-05-06 08:02 13.48696 121.33469 36897 ft 498 kts 158°
2026-05-06 08:02 13.42328 121.36278 36903 ft 498 kts 158°
2026-05-06 08:03 13.35952 121.39088 36903 ft 499 kts 158°
2026-05-06 08:03 13.29575 121.41900 36903 ft 499 kts 158°
2026-05-06 08:04 13.23196 121.44713 36900 ft 499 kts 158°
2026-05-06 08:04 13.16820 121.47522 36906 ft 499 kts 158°
2026-05-06 08:05 13.10483 121.50313 36903 ft 499 kts 158°
2026-05-06 08:05 13.04107 121.53120 36896 ft 499 kts 159°
2026-05-06 08:06 12.97738 121.55921 36898 ft 498 kts 159°
2026-05-06 08:06 12.91368 121.58722 36897 ft 498 kts 159°
2026-05-06 08:07 12.85004 121.61518 36895 ft 498 kts 159°
2026-05-06 08:07 12.78638 121.64313 36883 ft 498 kts 159°
2026-05-06 08:08 12.72284 121.67103 36887 ft 497 kts 159°
2026-05-06 08:08 12.65930 121.69890 36887 ft 497 kts 159°
2026-05-06 08:09 12.59573 121.72677 36888 ft 497 kts 159°
2026-05-06 08:09 12.53220 121.75461 36884 ft 497 kts 159°
2026-05-06 08:10 12.46870 121.78242 36879 ft 497 kts 159°
2026-05-06 08:10 12.40521 121.81022 36879 ft 496 kts 159°
2026-05-06 08:11 12.34194 121.83795 36879 ft 494 kts 159°
2026-05-06 08:11 12.27870 121.86559 36878 ft 494 kts 159°
2026-05-06 08:12 12.21543 121.89315 36876 ft 494 kts 159°
2026-05-06 08:12 12.15216 121.92072 36876 ft 494 kts 159°
2026-05-06 08:13 12.08896 121.94828 36874 ft 494 kts 159°
2026-05-06 08:13 12.02578 121.97582 36875 ft 494 kts 159°
2026-05-06 08:14 11.96259 122.00335 36875 ft 493 kts 159°
2026-05-06 08:14 11.91013 122.02619 36875 ft 493 kts 159°
2026-05-06 08:15 11.84695 122.05369 36873 ft 493 kts 159°
2026-05-06 08:15 11.78378 122.08117 36878 ft 493 kts 158°
2026-05-06 08:16 11.72077 122.10858 36879 ft 492 kts 158°
2026-05-06 08:16 11.65778 122.13595 36880 ft 492 kts 158°
2026-05-06 08:17 11.59485 122.16329 36879 ft 491 kts 158°
2026-05-06 08:17 11.53192 122.19060 36882 ft 492 kts 158°
2026-05-06 08:18 11.46896 122.21792 36883 ft 492 kts 158°
2026-05-06 08:18 11.40604 122.24520 36885 ft 491 kts 158°
2026-05-06 08:19 11.34311 122.27249 36886 ft 492 kts 158°
2026-05-06 08:19 11.28061 122.29957 36890 ft 491 kts 158°
2026-05-06 08:20 11.21773 122.32681 36890 ft 491 kts 158°
2026-05-06 08:20 11.15484 122.35405 36888 ft 492 kts 158°
2026-05-06 08:21 11.09192 122.38130 36888 ft 491 kts 158°
2026-05-06 08:21 11.02905 122.40843 36878 ft 491 kts 158°
2026-05-06 08:22 10.96622 122.43556 36877 ft 490 kts 158°
2026-05-06 08:22 10.90341 122.46267 36867 ft 491 kts 158°
2026-05-06 08:23 10.84055 122.48981 36868 ft 491 kts 158°
2026-05-06 08:23 10.77821 122.51807 36861 ft 490 kts 156°
2026-05-06 08:24 10.71660 122.54772 36861 ft 489 kts 156°
2026-05-06 08:24 10.65516 122.57723 36854 ft 489 kts 156°
2026-05-06 08:25 10.59354 122.60650 36854 ft 489 kts 156°
2026-05-06 08:25 10.53181 122.63567 36848 ft 490 kts 156°
2026-05-06 08:26 10.46996 122.66487 36847 ft 490 kts 156°
2026-05-06 08:26 10.40802 122.69412 36849 ft 491 kts 156°
2026-05-06 08:27 10.34603 122.72338 36846 ft 491 kts 156°
2026-05-06 08:27 10.28442 122.75244 36854 ft 491 kts 156°
2026-05-06 08:28 10.22246 122.78167 36854 ft 491 kts 156°
2026-05-06 08:28 10.16044 122.81093 36859 ft 491 kts 155°
2026-05-06 08:29 10.09846 122.84019 36862 ft 491 kts 155°
2026-05-06 08:29 10.03646 122.86934 36860 ft 491 kts 155°
2026-05-06 08:30 9.97450 122.89849 36865 ft 491 kts 155°
2026-05-06 08:30 9.91262 122.92760 36863 ft 491 kts 155°
2026-05-06 08:31 9.85074 122.95670 36866 ft 489 kts 155°
2026-05-06 08:31 9.78899 122.98575 36866 ft 489 kts 155°
2026-05-06 08:32 9.72723 123.01488 36866 ft 490 kts 155°
2026-05-06 08:32 9.66534 123.04391 36867 ft 489 kts 156°
2026-05-06 08:33 9.60359 123.07287 36868 ft 489 kts 156°
2026-05-06 08:33 9.54188 123.10184 36864 ft 489 kts 156°
2026-05-06 08:34 9.44944 123.14522 36858 ft 487 kts 155°
2026-05-06 08:35 9.38793 123.17408 36858 ft 488 kts 155°
2026-05-06 08:35 9.32616 123.20305 36859 ft 490 kts 155°
2026-05-06 08:36 9.26422 123.23208 36856 ft 491 kts 155°
2026-05-06 08:36 9.20224 123.26112 36855 ft 490 kts 155°
2026-05-06 08:37 9.14035 123.29010 36848 ft 490 kts 155°
2026-05-06 08:37 9.07850 123.31914 36843 ft 490 kts 155°
2026-05-06 08:38 9.01660 123.34811 36843 ft 490 kts 155°
2026-05-06 08:38 8.95501 123.37689 36841 ft 491 kts 155°
2026-05-06 08:39 8.89291 123.40593 36838 ft 492 kts 155°
2026-05-06 08:39 8.83082 123.43496 36843 ft 492 kts 155°
2026-05-06 08:40 8.76872 123.46399 36841 ft 492 kts 155°
2026-05-06 08:40 8.70662 123.49301 36845 ft 491 kts 155°
2026-05-06 08:41 8.64456 123.52201 36845 ft 491 kts 155°
2026-05-06 08:41 8.58252 123.55098 36855 ft 492 kts 155°
2026-05-06 08:42 8.52047 123.57994 36856 ft 491 kts 155°
2026-05-06 08:42 8.45840 123.60890 36859 ft 492 kts 155°
2026-05-06 08:43 8.39620 123.63792 36858 ft 492 kts 155°
2026-05-06 08:43 8.33398 123.66693 36860 ft 492 kts 155°
2026-05-06 08:44 8.27176 123.69594 36861 ft 492 kts 155°
2026-05-06 08:44 8.20967 123.72487 36861 ft 491 kts 155°
2026-05-06 08:45 8.14751 123.75382 36862 ft 492 kts 155°
2026-05-06 08:45 8.08534 123.78278 36858 ft 492 kts 155°
2026-05-06 08:46 8.02320 123.81170 36858 ft 492 kts 155°
2026-05-06 08:46 7.96108 123.84061 36859 ft 491 kts 155°
2026-05-06 08:47 7.89939 123.86931 36853 ft 492 kts 155°
2026-05-06 08:47 7.83743 123.89812 36853 ft 491 kts 155°
2026-05-06 08:48 7.77523 123.92704 36856 ft 491 kts 155°
2026-05-06 08:48 7.71322 123.95586 36856 ft 491 kts 155°
2026-05-06 08:49 7.65104 123.98474 36845 ft 492 kts 155°
2026-05-06 08:49 7.58875 124.01367 36857 ft 493 kts 155°
2026-05-06 08:50 7.52657 124.04254 36846 ft 493 kts 155°
2026-05-06 08:50 7.46429 124.07144 36845 ft 492 kts 155°
2026-05-06 08:51 7.40211 124.10030 36837 ft 492 kts 155°
2026-05-06 08:51 7.33994 124.12914 36842 ft 492 kts 155°
2026-05-06 08:52 7.27776 124.15797 36840 ft 492 kts 155°
2026-05-06 08:52 7.21572 124.18673 36840 ft 492 kts 155°
2026-05-06 08:53 7.15386 124.21534 36944 ft 493 kts 156°
2026-05-06 08:53 7.12205 124.22825 37153 ft 493 kts 160°
2026-05-06 08:53 7.08977 124.23973 37394 ft 491 kts 161°
2026-05-06 08:53 7.05743 124.25067 37603 ft 490 kts 161°
2026-05-06 08:54 7.02512 124.26158 37787 ft 490 kts 161°
2026-05-06 08:54 6.99283 124.27268 37891 ft 491 kts 161°
2026-05-06 08:54 6.96059 124.28399 38046 ft 491 kts 160°
2026-05-06 08:54 6.92847 124.29545 38253 ft 489 kts 160°
2026-05-06 08:55 6.89648 124.30697 38435 ft 489 kts 160°
2026-05-06 08:55 6.86442 124.31856 38537 ft 489 kts 160°
2026-05-06 08:55 6.83241 124.33016 38638 ft 489 kts 160°
2026-05-06 08:55 6.80037 124.34177 38767 ft 489 kts 160°
2026-05-06 08:56 6.76833 124.35336 38861 ft 490 kts 160°
2026-05-06 08:56 6.70401 124.37661 38870 ft 492 kts 160°
2026-05-06 08:57 6.63959 124.39986 38876 ft 491 kts 160°
2026-05-06 08:57 6.57532 124.42306 38873 ft 491 kts 160°
2026-05-06 08:58 6.51098 124.44627 38882 ft 491 kts 160°
2026-05-06 08:58 6.44666 124.46947 38881 ft 491 kts 160°
2026-05-06 08:59 6.38240 124.49265 38879 ft 490 kts 160°
2026-05-06 08:59 6.31815 124.51581 38881 ft 490 kts 160°
2026-05-06 09:00 6.25389 124.53897 38874 ft 490 kts 160°
2026-05-06 09:00 6.18977 124.56212 38876 ft 489 kts 160°
2026-05-06 09:01 6.12576 124.58523 38866 ft 489 kts 160°
2026-05-06 09:01 6.06168 124.60836 38864 ft 489 kts 160°
2026-05-06 09:02 5.99806 124.63132 38853 ft 489 kts 160°
2026-05-06 09:02 5.93395 124.65445 38857 ft 489 kts 160°
2026-05-06 09:03 5.87006 124.67751 38840 ft 488 kts 160°
2026-05-06 09:03 5.80621 124.70053 38842 ft 487 kts 160°
2026-05-06 09:04 5.74238 124.72355 38826 ft 487 kts 160°
2026-05-06 09:04 5.68932 124.74268 38828 ft 488 kts 160°
2026-05-06 09:05 5.62538 124.76573 38824 ft 488 kts 160°
2026-05-06 09:05 5.56149 124.78875 38825 ft 487 kts 160°
2026-05-06 09:06 5.49769 124.81174 38820 ft 487 kts 160°
2026-05-06 09:06 5.43383 124.83474 38821 ft 488 kts 160°
2026-05-06 09:07 5.36998 124.85774 38821 ft 487 kts 160°
2026-05-06 09:07 5.30615 124.88071 38821 ft 487 kts 160°
2026-05-06 09:08 5.24232 124.90369 38826 ft 488 kts 160°
2026-05-06 09:08 5.17837 124.92671 38824 ft 488 kts 160°
2026-05-06 09:09 5.11439 124.94972 38819 ft 488 kts 160°
2026-05-06 09:09 5.05045 124.97272 38822 ft 488 kts 160°
2026-05-06 09:10 4.98652 124.99572 38825 ft 488 kts 160°
2026-05-06 09:10 4.92260 125.01870 38821 ft 488 kts 160°
2026-05-06 09:11 4.85868 125.04168 38821 ft 488 kts 160°
2026-05-06 09:11 4.79476 125.06466 38815 ft 488 kts 160°
2026-05-06 09:12 4.73084 125.08762 38814 ft 488 kts 160°
2026-05-06 09:12 4.66738 125.11042 38817 ft 488 kts 160°
2026-05-06 09:13 4.60309 125.13352 38815 ft 488 kts 160°
2026-05-06 09:13 4.53963 125.15631 38814 ft 488 kts 160°
2026-05-06 09:14 4.47570 125.17926 38813 ft 488 kts 160°
2026-05-06 09:14 4.41181 125.20220 38818 ft 488 kts 160°
2026-05-06 09:15 4.34796 125.22512 38820 ft 488 kts 160°
2026-05-06 09:15 4.28407 125.24805 38818 ft 487 kts 160°
2026-05-06 09:16 4.22019 125.27097 38818 ft 488 kts 160°
2026-05-06 09:16 4.15625 125.29391 38814 ft 488 kts 160°
2026-05-06 09:17 4.09233 125.31684 38816 ft 488 kts 160°
2026-05-06 09:17 4.02835 125.33979 38820 ft 488 kts 160°
2026-05-06 09:18 3.96437 125.36249 38823 ft 488 kts 161°
2026-05-06 09:18 3.89993 125.38373 38816 ft 488 kts 162°
2026-05-06 09:19 3.83535 125.40470 38821 ft 488 kts 161°
2026-05-06 09:19 3.77088 125.42588 38826 ft 488 kts 161°
2026-05-06 09:20 3.70647 125.44720 38826 ft 488 kts 161°
2026-05-06 09:20 3.64206 125.46856 38821 ft 488 kts 161°
2026-05-06 09:21 3.57759 125.48992 38818 ft 488 kts 161°
2026-05-06 09:21 3.51316 125.51126 38826 ft 488 kts 161°
2026-05-06 09:22 3.44864 125.53262 38827 ft 488 kts 161°
2026-05-06 09:22 3.38410 125.55399 38825 ft 488 kts 161°
2026-05-06 09:23 3.31958 125.57535 38816 ft 488 kts 161°
2026-05-06 09:23 3.25505 125.59671 38822 ft 488 kts 161°
2026-05-06 09:24 3.19094 125.61793 38819 ft 488 kts 161°
2026-05-06 09:24 3.12601 125.63942 38827 ft 488 kts 161°
2026-05-06 09:25 3.06147 125.66077 38821 ft 489 kts 161°
2026-05-06 09:25 2.99737 125.68197 38821 ft 489 kts 161°
2026-05-06 09:26 2.93278 125.70334 38820 ft 489 kts 161°
2026-05-06 09:26 2.86820 125.72470 38822 ft 489 kts 161°
2026-05-06 09:27 2.80361 125.74606 38820 ft 489 kts 161°
2026-05-06 09:27 2.73903 125.76741 38821 ft 489 kts 161°
2026-05-06 09:28 2.67436 125.78879 38821 ft 490 kts 161°
2026-05-06 09:28 2.60966 125.81018 38816 ft 490 kts 161°
2026-05-06 09:29 2.54494 125.83158 38814 ft 490 kts 161°
2026-05-06 09:29 2.48023 125.85296 38813 ft 490 kts 161°
2026-05-06 09:30 2.41556 125.87433 38815 ft 489 kts 161°
2026-05-06 09:30 2.35094 125.89569 38821 ft 489 kts 161°
2026-05-06 09:31 2.28636 125.91703 38825 ft 489 kts 161°
2026-05-06 09:31 2.22174 125.93838 38827 ft 489 kts 161°
2026-05-06 09:32 2.15717 125.95971 38826 ft 489 kts 161°
2026-05-06 09:32 2.09275 125.98099 38825 ft 487 kts 161°
2026-05-06 09:33 2.02843 126.00223 38823 ft 486 kts 161°
2026-05-06 09:33 1.96436 126.02400 38827 ft 486 kts 159°
2026-05-06 09:34 1.90141 126.04864 38827 ft 486 kts 158°
2026-05-06 09:34 1.83859 126.07379 38824 ft 486 kts 158°
2026-05-06 09:35 1.77561 126.09853 38824 ft 486 kts 158°
2026-05-06 09:35 1.71295 126.12284 38826 ft 486 kts 158°
2026-05-06 09:36 1.64984 126.14724 38828 ft 486 kts 158°
2026-05-06 09:36 1.58672 126.17166 38827 ft 486 kts 158°
2026-05-06 09:37 1.52363 126.19608 38817 ft 486 kts 158°
2026-05-06 09:37 1.46046 126.22053 38823 ft 487 kts 158°
2026-05-06 09:38 1.39730 126.24498 38824 ft 487 kts 158°
2026-05-06 09:38 1.33412 126.26944 38822 ft 487 kts 158°
2026-05-06 09:39 1.27097 126.29388 38821 ft 487 kts 158°
2026-05-06 09:39 1.20784 126.31831 38824 ft 487 kts 158°
2026-05-06 09:40 1.14469 126.34275 38826 ft 487 kts 158°
2026-05-06 09:40 1.04991 126.37943 38830 ft 487 kts 158°
2026-05-06 09:41 0.98673 126.40388 38824 ft 487 kts 158°
2026-05-06 09:41 0.92353 126.42833 38826 ft 487 kts 158°
2026-05-06 09:42 0.86034 126.45278 38829 ft 487 kts 158°
2026-05-06 09:42 0.79716 126.47723 38822 ft 487 kts 158°
2026-05-06 09:43 0.73392 126.50170 38822 ft 487 kts 158°
2026-05-06 09:43 0.67073 126.52615 38830 ft 487 kts 158°
2026-05-06 09:44 0.60748 126.55062 38832 ft 487 kts 158°
2026-05-06 09:44 0.54470 126.57490 38830 ft 487 kts 158°
2026-05-06 09:45 0.48152 126.59935 38823 ft 487 kts 158°
2026-05-06 09:45 0.41829 126.62381 38824 ft 487 kts 158°
2026-05-06 09:46 0.35502 126.64829 38828 ft 488 kts 158°
2026-05-06 09:46 0.29175 126.67276 38823 ft 487 kts 158°
2026-05-06 09:47 0.22851 126.69722 38827 ft 487 kts 158°
2026-05-06 09:47 0.16534 126.72166 38830 ft 487 kts 158°
2026-05-06 09:48 0.10210 126.74613 38826 ft 488 kts 158°
2026-05-06 09:48 0.03881 126.77061 38821 ft 487 kts 158°
2026-05-06 09:49 -0.02436 126.79505 38831 ft 487 kts 158°
2026-05-06 09:49 -0.08749 126.81946 38832 ft 486 kts 158°
2026-05-06 09:50 -0.15063 126.84389 38824 ft 486 kts 158°
2026-05-06 09:50 -0.21377 126.86832 38828 ft 487 kts 158°
2026-05-06 09:51 -0.26624 126.88862 38827 ft 487 kts 158°
2026-05-06 09:51 -0.32937 126.91304 38830 ft 487 kts 158°
2026-05-06 09:52 -0.39256 126.93749 38828 ft 487 kts 158°
2026-05-06 09:52 -0.45581 126.96196 38827 ft 488 kts 158°
2026-05-06 09:53 -0.51909 126.98644 38833 ft 488 kts 158°
2026-05-06 09:53 -0.58238 127.01092 38830 ft 488 kts 158°
2026-05-06 09:54 -0.64571 127.03542 38831 ft 489 kts 158°
2026-05-06 09:54 -0.70920 127.05999 38835 ft 490 kts 158°
2026-05-06 09:55 -0.77272 127.08457 38830 ft 490 kts 158°
2026-05-06 09:55 -0.83627 127.10916 38831 ft 490 kts 158°
2026-05-06 09:56 -0.89980 127.13373 38829 ft 490 kts 158°
2026-05-06 09:56 -0.96341 127.15835 38825 ft 491 kts 158°
2026-05-06 09:57 -1.02667 127.18283 38826 ft 491 kts 158°
2026-05-06 09:57 -1.09036 127.20748 38827 ft 491 kts 158°
2026-05-06 09:58 -1.15402 127.23211 38828 ft 491 kts 158°
2026-05-06 09:58 -1.21775 127.25677 38835 ft 491 kts 159°
2026-05-06 09:59 -1.28143 127.28142 38836 ft 491 kts 158°
2026-05-06 09:59 -1.34513 127.30608 38840 ft 491 kts 158°
2026-05-06 10:00 -1.40877 127.33071 38836 ft 491 kts 158°
2026-05-06 10:00 -1.47246 127.35537 38841 ft 491 kts 158°
2026-05-06 10:01 -1.53658 127.38019 38840 ft 491 kts 159°
2026-05-06 10:01 -1.59968 127.40462 38836 ft 489 kts 159°
2026-05-06 10:02 -1.66319 127.42921 38838 ft 489 kts 159°
2026-05-06 10:02 -1.72670 127.45380 38841 ft 490 kts 159°
2026-05-06 10:03 -1.79019 127.47838 38841 ft 489 kts 159°
2026-05-06 10:03 -1.85375 127.50300 38830 ft 490 kts 159°
2026-05-06 10:04 -1.91723 127.52759 38838 ft 489 kts 159°
2026-05-06 10:04 -1.98072 127.55217 38835 ft 489 kts 159°
2026-05-06 10:05 -2.04416 127.57675 38832 ft 489 kts 159°
2026-05-06 10:05 -2.10762 127.60133 38832 ft 489 kts 159°
2026-05-06 10:06 -2.17112 127.62593 38838 ft 490 kts 159°
2026-05-06 10:06 -2.23465 127.65055 38834 ft 489 kts 159°
2026-05-06 10:07 -2.29811 127.67513 38837 ft 489 kts 158°
2026-05-06 10:07 -2.36156 127.69973 38837 ft 489 kts 159°
2026-05-06 10:08 -2.42512 127.72436 38832 ft 490 kts 158°
2026-05-06 10:08 -2.48852 127.74893 38836 ft 488 kts 158°
2026-05-06 10:09 -2.55178 127.77345 38836 ft 487 kts 158°
2026-05-06 10:09 -2.61500 127.79796 38837 ft 488 kts 158°
2026-05-06 10:10 -2.67827 127.82249 38839 ft 488 kts 158°
2026-05-06 10:10 -2.74149 127.84701 38837 ft 487 kts 158°
2026-05-06 10:11 -2.80474 127.87154 38837 ft 487 kts 158°
2026-05-06 10:11 -2.86753 127.89589 38838 ft 488 kts 158°
2026-05-06 10:12 -2.93078 127.92043 38838 ft 487 kts 158°
2026-05-06 10:12 -2.99401 127.94496 38837 ft 487 kts 158°
2026-05-06 10:13 -3.05728 127.96950 38841 ft 488 kts 158°
2026-05-06 10:13 -3.12063 127.99409 38843 ft 488 kts 158°
2026-05-06 10:14 -3.18395 128.01867 38850 ft 488 kts 158°
2026-05-06 10:14 -3.24727 128.04324 38854 ft 488 kts 158°
2026-05-06 10:15 -3.31061 128.06783 38852 ft 488 kts 158°
2026-05-06 10:15 -3.37395 128.09242 38853 ft 488 kts 158°
2026-05-06 10:16 -3.43731 128.11703 38856 ft 488 kts 158°
2026-05-06 10:16 -3.50064 128.14162 38855 ft 488 kts 158°
2026-05-06 10:17 -3.56398 128.16623 38853 ft 488 kts 158°
2026-05-06 10:17 -3.62733 128.19079 38855 ft 487 kts 159°
2026-05-06 10:18 -3.69188 128.21118 38860 ft 486 kts 164°
2026-05-06 10:18 -3.75708 128.22922 38854 ft 486 kts 164°
2026-05-06 10:19 -3.82215 128.24776 38850 ft 486 kts 163°
2026-05-06 10:19 -3.88705 128.26689 38856 ft 486 kts 163°
2026-05-06 10:20 -3.95194 128.28623 38851 ft 487 kts 163°
2026-05-06 10:20 -4.01705 128.30566 38852 ft 488 kts 163°
2026-05-06 10:21 -4.08209 128.32503 38850 ft 487 kts 162°
2026-05-06 10:21 -4.14715 128.34441 38852 ft 488 kts 162°
2026-05-06 10:22 -4.21232 128.36381 38849 ft 489 kts 163°
2026-05-06 10:22 -4.27795 128.38336 38852 ft 495 kts 162°
2026-05-06 10:23 -4.34354 128.40290 38851 ft 495 kts 163°
2026-05-06 10:23 -4.40949 128.42255 38850 ft 495 kts 163°
2026-05-06 10:24 -4.47546 128.44221 38851 ft 494 kts 163°
2026-05-06 10:24 -4.54142 128.46187 38848 ft 495 kts 163°
2026-05-06 10:25 -4.60752 128.48158 38853 ft 496 kts 163°
2026-05-06 10:25 -4.67363 128.50129 38851 ft 496 kts 163°
2026-05-06 10:26 -4.73974 128.52101 38851 ft 496 kts 163°
2026-05-06 10:26 -4.80582 128.54073 38851 ft 496 kts 163°
2026-05-06 10:27 -4.87201 128.56047 38850 ft 496 kts 163°
2026-05-06 10:27 -4.93821 128.58023 38850 ft 496 kts 163°
2026-05-06 10:28 -5.00442 128.59999 38857 ft 497 kts 163°
2026-05-06 10:28 -5.07069 128.61978 38857 ft 497 kts 163°
2026-05-06 10:29 -5.13695 128.63957 38856 ft 498 kts 163°
2026-05-06 10:29 -5.20337 128.65941 38858 ft 498 kts 163°
2026-05-06 10:30 -5.26980 128.67925 38857 ft 498 kts 163°
2026-05-06 10:30 -5.33634 128.69914 38857 ft 499 kts 163°
2026-05-06 10:31 -5.40290 128.71904 38856 ft 499 kts 163°
2026-05-06 10:31 -5.46959 128.73898 38861 ft 501 kts 163°
2026-05-06 10:32 -5.53639 128.75895 38858 ft 500 kts 163°
2026-05-06 10:32 -5.60306 128.77889 38860 ft 500 kts 163°
2026-05-06 10:33 -5.66984 128.79887 38860 ft 500 kts 163°
2026-05-06 10:33 -5.73646 128.81881 38858 ft 500 kts 163°
2026-05-06 10:34 -5.80315 128.83877 38862 ft 500 kts 163°
2026-05-06 10:34 -5.86938 128.85860 38862 ft 500 kts 163°
2026-05-06 10:35 -5.93613 128.87860 38858 ft 501 kts 164°
2026-05-06 10:35 -6.00294 128.89861 38861 ft 501 kts 163°
2026-05-06 10:36 -6.06998 128.91869 38862 ft 504 kts 164°
2026-05-06 10:36 -6.13706 128.93879 38861 ft 502 kts 163°
2026-05-06 10:37 -6.20413 128.95890 38863 ft 504 kts 164°
2026-05-06 10:37 -6.26033 128.97575 38862 ft 502 kts 165°
2026-05-06 10:38 -6.32679 128.99570 38864 ft 502 kts 165°
2026-05-06 10:38 -6.39371 129.01576 38863 ft 501 kts 165°
2026-05-06 10:39 -6.46056 129.03583 38866 ft 502 kts 165°
2026-05-06 10:39 -6.52792 129.05604 38869 ft 501 kts 164°
2026-05-06 10:40 -6.59463 129.07608 38873 ft 500 kts 165°
2026-05-06 10:40 -6.66083 129.09596 38870 ft 500 kts 165°
2026-05-06 10:41 -6.72794 129.11613 38868 ft 500 kts 165°
2026-05-06 10:41 -6.79472 129.13619 38871 ft 501 kts 165°
2026-05-06 10:42 -6.86136 129.15623 38871 ft 499 kts 165°
2026-05-06 10:42 -6.92779 129.17621 38871 ft 498 kts 165°
2026-05-06 10:43 -6.99372 129.19604 38873 ft 498 kts 165°
2026-05-06 10:44 -7.09328 129.22600 38873 ft 498 kts 165°
2026-05-06 10:44 -7.15970 129.24599 38874 ft 498 kts 165°
2026-05-06 10:45 -7.22607 129.26597 38875 ft 498 kts 166°
2026-05-06 10:45 -7.29244 129.28596 38875 ft 498 kts 165°
2026-05-06 10:46 -7.35901 129.30601 38876 ft 498 kts 165°
2026-05-06 10:46 -7.42534 129.32601 38877 ft 498 kts 165°
2026-05-06 10:47 -7.49173 129.34602 38879 ft 498 kts 165°
2026-05-06 10:47 -7.55813 129.36605 38879 ft 498 kts 165°
2026-05-06 10:48 -7.62453 129.38607 38878 ft 498 kts 166°
2026-05-06 10:48 -7.69090 129.40610 38882 ft 498 kts 165°
2026-05-06 10:49 -7.75679 129.42599 38881 ft 498 kts 165°
2026-05-06 10:49 -7.82314 129.44603 38881 ft 497 kts 165°
2026-05-06 10:50 -7.88941 129.46605 38879 ft 497 kts 165°
2026-05-06 10:50 -7.95572 129.48609 38882 ft 498 kts 165°
2026-05-06 10:51 -8.02206 129.50614 38884 ft 497 kts 166°
2026-05-06 10:51 -8.08836 129.52618 38887 ft 498 kts 166°
2026-05-06 10:52 -8.15464 129.54623 38885 ft 497 kts 165°
2026-05-06 10:52 -8.22096 129.56630 38886 ft 497 kts 166°
2026-05-06 10:53 -8.28719 129.58635 38885 ft 497 kts 165°
2026-05-06 10:53 -8.35348 129.60642 38887 ft 498 kts 166°
2026-05-06 10:54 -8.41983 129.62651 38887 ft 498 kts 166°
2026-05-06 10:54 -8.48616 129.64661 38886 ft 498 kts 165°
2026-05-06 10:55 -8.55245 129.66672 38889 ft 498 kts 166°
2026-05-06 10:55 -8.61863 129.68738 38890 ft 498 kts 165°
2026-05-06 10:56 -8.68468 129.70847 38888 ft 498 kts 165°
2026-05-06 10:56 -8.75032 129.72936 38891 ft 498 kts 165°
2026-05-06 10:57 -8.81633 129.75030 38889 ft 497 kts 165°
2026-05-06 10:57 -8.88239 129.77122 38893 ft 497 kts 165°
2026-05-06 10:58 -8.94838 129.79212 38893 ft 497 kts 165°
2026-05-06 10:58 -9.01440 129.81305 38890 ft 497 kts 165°
2026-05-06 10:59 -9.08045 129.83399 38896 ft 497 kts 165°
2026-05-06 10:59 -9.14647 129.85494 38892 ft 497 kts 165°
2026-05-06 11:00 -9.21253 129.87590 38895 ft 497 kts 165°
2026-05-06 11:00 -9.27860 129.89688 38895 ft 497 kts 165°
2026-05-06 11:01 -9.34461 129.91785 38894 ft 498 kts 165°
2026-05-06 11:01 -9.41079 129.93888 38898 ft 498 kts 165°
2026-05-06 11:02 -9.47696 129.95968 38893 ft 498 kts 165°
2026-05-06 11:02 -9.54320 129.98024 38900 ft 498 kts 165°
2026-05-06 11:03 -9.60950 130.00085 38900 ft 498 kts 165°
2026-05-06 11:03 -9.67577 130.02151 38906 ft 498 kts 165°
2026-05-06 11:04 -9.74205 130.04220 38906 ft 499 kts 165°
2026-05-06 11:04 -9.80836 130.06292 38906 ft 499 kts 165°
2026-05-06 11:05 -9.87474 130.08366 38908 ft 499 kts 165°
2026-05-06 11:05 -9.94108 130.10440 38905 ft 499 kts 165°
2026-05-06 11:06 -10.00737 130.12513 38905 ft 498 kts 165°
2026-05-06 11:06 -10.07363 130.14587 38909 ft 498 kts 165°
2026-05-06 11:07 -10.13992 130.16662 38910 ft 499 kts 165°
2026-05-06 11:07 -10.20623 130.18738 38910 ft 499 kts 165°
2026-05-06 11:08 -10.27212 130.20802 38910 ft 499 kts 165°
2026-05-06 11:08 -10.33852 130.22883 38915 ft 499 kts 165°
2026-05-06 11:09 -10.40487 130.24964 38917 ft 499 kts 165°
2026-05-06 11:09 -10.47129 130.27048 38919 ft 500 kts 165°
2026-05-06 11:10 -10.53773 130.29132 38919 ft 500 kts 165°
2026-05-06 11:10 -10.60414 130.31218 38919 ft 500 kts 165°
2026-05-06 11:11 -10.67055 130.33304 38922 ft 500 kts 166°
2026-05-06 11:11 -10.73699 130.35392 38922 ft 500 kts 166°
2026-05-06 11:12 -10.80345 130.37482 38922 ft 500 kts 166°
2026-05-06 11:12 -10.86995 130.39574 38922 ft 500 kts 166°
2026-05-06 11:13 -10.93631 130.41719 38924 ft 500 kts 165°
2026-05-06 11:13 -11.00226 130.43964 38927 ft 499 kts 164°
2026-05-06 11:14 -11.06808 130.46209 38927 ft 499 kts 165°
2026-05-06 11:14 -11.13396 130.48439 38924 ft 499 kts 165°
2026-05-06 11:15 -11.19960 130.50652 38922 ft 501 kts 165°
2026-05-06 11:15 -11.26580 130.52885 38927 ft 501 kts 165°
2026-05-06 11:16 -11.33194 130.55117 38932 ft 501 kts 165°
2026-05-06 11:16 -11.39809 130.57351 38930 ft 501 kts 165°
2026-05-06 11:17 -11.46429 130.59588 38941 ft 500 kts 165°
2026-05-06 11:17 -11.53023 130.61819 38934 ft 499 kts 165°
2026-05-06 11:18 -11.59615 130.64048 38937 ft 499 kts 165°
2026-05-06 11:18 -11.66204 130.66277 38935 ft 499 kts 165°
2026-05-06 11:19 -11.72792 130.68508 38935 ft 499 kts 165°
2026-05-06 11:19 -11.79388 130.70742 38939 ft 500 kts 165°
2026-05-06 11:20 -11.85985 130.72978 38937 ft 500 kts 165°
2026-05-06 11:20 -11.92583 130.75216 38931 ft 500 kts 165°
2026-05-06 11:21 -11.99180 130.77454 38941 ft 500 kts 165°
2026-05-06 11:21 -12.05786 130.79696 38935 ft 501 kts 165°
2026-05-06 11:22 -12.12405 130.81944 38940 ft 501 kts 165°
2026-05-06 11:22 -12.19022 130.84193 38953 ft 501 kts 165°
2026-05-06 11:23 -12.25638 130.86443 38969 ft 501 kts 166°
2026-05-06 11:23 -12.32264 130.88696 38958 ft 502 kts 166°
2026-05-06 11:24 -12.37771 130.90570 38969 ft 502 kts 166°
2026-05-06 11:24 -12.44396 130.92826 38958 ft 502 kts 165°
2026-05-06 11:25 -12.51022 130.95084 38975 ft 502 kts 166°
2026-05-06 11:25 -12.57649 130.97343 38959 ft 502 kts 166°
2026-05-06 11:26 -12.64281 130.99604 38960 ft 502 kts 166°
2026-05-06 11:26 -12.70907 131.01865 38967 ft 502 kts 166°
2026-05-06 11:27 -12.77540 131.04130 38961 ft 502 kts 166°
2026-05-06 11:27 -12.84169 131.06395 38960 ft 502 kts 166°
2026-05-06 11:28 -12.90803 131.08662 38964 ft 502 kts 166°
2026-05-06 11:28 -12.97429 131.10928 38967 ft 503 kts 166°
2026-05-06 11:29 -13.04063 131.13198 38971 ft 502 kts 166°
2026-05-06 11:29 -13.10700 131.15471 38971 ft 503 kts 166°
2026-05-06 11:30 -13.17338 131.17744 38973 ft 503 kts 166°
2026-05-06 11:30 -13.23977 131.20020 38975 ft 503 kts 166°
2026-05-06 11:31 -13.30617 131.22298 38973 ft 503 kts 166°
2026-05-06 11:31 -13.37251 131.24575 38983 ft 503 kts 166°
2026-05-06 11:32 -13.43887 131.26853 38982 ft 503 kts 166°
2026-05-06 11:32 -13.50519 131.29132 38985 ft 503 kts 166°
2026-05-06 11:33 -13.57155 131.31413 38988 ft 503 kts 166°
2026-05-06 11:33 -13.63752 131.33682 38988 ft 503 kts 166°
2026-05-06 11:34 -13.70389 131.35967 38987 ft 503 kts 166°
2026-05-06 11:34 -13.77034 131.38255 38991 ft 504 kts 166°
2026-05-06 11:35 -13.83680 131.40545 38993 ft 504 kts 166°
2026-05-06 11:35 -13.90325 131.42836 38996 ft 504 kts 166°
2026-05-06 11:36 -13.96971 131.45129 38996 ft 504 kts 166°
2026-05-06 11:36 -14.03619 131.47424 39004 ft 504 kts 166°
2026-05-06 11:37 -14.10263 131.49719 38999 ft 504 kts 166°
2026-05-06 11:37 -14.16910 131.52017 39004 ft 504 kts 166°
2026-05-06 11:38 -14.23561 131.54317 39004 ft 504 kts 166°
2026-05-06 11:38 -14.30209 131.56618 39008 ft 504 kts 166°
2026-05-06 11:39 -14.36861 131.58922 39009 ft 505 kts 166°
2026-05-06 11:39 -14.43517 131.61228 39013 ft 505 kts 166°
2026-05-06 11:40 -14.50178 131.63537 39015 ft 505 kts 166°
2026-05-06 11:40 -14.56841 131.65849 39019 ft 505 kts 167°
2026-05-06 11:41 -14.63503 131.68161 39023 ft 505 kts 167°
2026-05-06 11:41 -14.70125 131.70462 39023 ft 505 kts 167°
2026-05-06 11:42 -14.76787 131.72778 39029 ft 505 kts 167°
2026-05-06 11:42 -14.83453 131.75097 39028 ft 506 kts 167°
2026-05-06 11:43 -14.90127 131.77419 39028 ft 506 kts 167°
2026-05-06 11:43 -14.96801 131.79744 39031 ft 506 kts 167°
2026-05-06 11:44 -15.06813 131.83234 39038 ft 506 kts 167°
2026-05-06 11:44 -15.13489 131.85563 39040 ft 506 kts 167°
2026-05-06 11:45 -15.20169 131.87895 39038 ft 506 kts 167°
2026-05-06 11:45 -15.26847 131.90228 39062 ft 507 kts 167°
2026-05-06 11:46 -15.33533 131.92565 39049 ft 508 kts 167°
2026-05-06 11:46 -15.40229 131.94907 39049 ft 508 kts 167°
2026-05-06 11:47 -15.46930 131.97253 39047 ft 508 kts 167°
2026-05-06 11:47 -15.53633 131.99587 39058 ft 508 kts 168°
2026-05-06 11:48 -15.60365 132.01828 39056 ft 508 kts 168°
2026-05-06 11:48 -15.67103 132.04054 39056 ft 508 kts 168°
2026-05-06 11:49 -15.73842 132.06297 39060 ft 509 kts 168°
2026-05-06 11:49 -15.80578 132.08551 39059 ft 509 kts 168°
2026-05-06 11:50 -15.87319 132.10810 39058 ft 509 kts 168°
2026-05-06 11:50 -15.94063 132.13072 39064 ft 509 kts 168°
2026-05-06 11:51 -16.00801 132.15333 39078 ft 509 kts 169°
2026-05-06 11:51 -16.07550 132.17599 39064 ft 510 kts 169°
2026-05-06 11:52 -16.14303 132.19867 39066 ft 510 kts 168°
2026-05-06 11:52 -16.21056 132.22137 39073 ft 510 kts 168°
2026-05-06 11:53 -16.27806 132.24408 39072 ft 510 kts 168°
2026-05-06 11:53 -16.34514 132.26667 39079 ft 510 kts 168°
2026-05-06 11:54 -16.41265 132.28942 39078 ft 510 kts 168°
2026-05-06 11:54 -16.48014 132.31218 39096 ft 510 kts 169°
2026-05-06 11:55 -16.54773 132.33498 39083 ft 511 kts 169°
2026-05-06 11:55 -16.61540 132.35782 39085 ft 511 kts 169°
2026-05-06 11:56 -16.68308 132.38070 39082 ft 511 kts 169°
2026-05-06 11:56 -16.75077 132.40359 39089 ft 512 kts 169°
2026-05-06 11:57 -16.81858 132.42653 39091 ft 512 kts 169°
2026-05-06 11:57 -16.88639 132.44950 39099 ft 512 kts 169°
2026-05-06 11:58 -16.95422 132.47250 39093 ft 512 kts 169°
2026-05-06 11:58 -17.02211 132.49553 39094 ft 513 kts 169°
2026-05-06 11:59 -17.09003 132.51858 39096 ft 514 kts 169°
2026-05-06 11:59 -17.15797 132.54175 39096 ft 514 kts 169°
2026-05-06 12:00 -17.22584 132.56555 39107 ft 514 kts 169°
2026-05-06 12:00 -17.29375 132.58952 39100 ft 515 kts 169°
2026-05-06 12:01 -17.36168 132.61346 39100 ft 515 kts 169°
2026-05-06 12:01 -17.42962 132.63736 39123 ft 515 kts 169°
2026-05-06 12:02 -17.49759 132.66129 39107 ft 516 kts 169°
2026-05-06 12:02 -17.56562 132.68524 39105 ft 516 kts 169°
2026-05-06 12:03 -17.63320 132.70907 39107 ft 516 kts 169°
2026-05-06 12:03 -17.70122 132.73307 39118 ft 516 kts 169°
2026-05-06 12:04 -17.76933 132.75712 39116 ft 516 kts 169°
2026-05-06 12:04 -17.83739 132.78117 39112 ft 516 kts 169°
2026-05-06 12:05 -17.90553 132.80527 39120 ft 516 kts 169°
2026-05-06 12:05 -17.97360 132.82936 39113 ft 517 kts 169°
2026-05-06 12:06 -18.04176 132.85351 39117 ft 517 kts 169°
2026-05-06 12:06 -18.10994 132.87768 39121 ft 517 kts 169°
2026-05-06 12:07 -18.17811 132.90187 39121 ft 517 kts 170°
2026-05-06 12:07 -18.24631 132.92609 39117 ft 517 kts 170°
2026-05-06 12:08 -18.31451 132.95033 39126 ft 517 kts 170°
2026-05-06 12:08 -18.38272 132.97460 39131 ft 517 kts 170°
2026-05-06 12:09 -18.45043 132.99870 39131 ft 517 kts 170°
2026-05-06 12:09 -18.51914 133.02318 39120 ft 518 kts 170°
2026-05-06 12:10 -18.57583 133.04339 39137 ft 518 kts 170°
2026-05-06 12:10 -18.65521 133.07172 39130 ft 518 kts 170°
2026-05-06 12:11 -18.72346 133.09610 39136 ft 518 kts 169°
2026-05-06 12:11 -18.79172 133.12051 39136 ft 518 kts 169°
2026-05-06 12:12 -18.84888 133.14097 39131 ft 518 kts 170°
2026-05-06 12:12 -18.91714 133.16540 39130 ft 518 kts 170°
2026-05-06 12:13 -18.98540 133.18987 39130 ft 518 kts 170°
2026-05-06 12:13 -19.05369 133.21436 39145 ft 518 kts 170°
2026-05-06 12:14 -19.12195 133.23887 39138 ft 518 kts 170°
2026-05-06 12:14 -19.19026 133.26341 39143 ft 519 kts 170°
2026-05-06 12:15 -19.25858 133.28799 39143 ft 519 kts 170°
2026-05-06 12:15 -19.32691 133.31258 39145 ft 519 kts 170°
2026-05-06 12:16 -19.39527 133.33721 39146 ft 519 kts 170°
2026-05-06 12:16 -19.46361 133.36185 39154 ft 519 kts 170°
2026-05-06 12:17 -19.53192 133.38651 39159 ft 519 kts 170°
2026-05-06 12:17 -19.60029 133.41121 39160 ft 519 kts 170°
2026-05-06 12:18 -19.66866 133.43593 39154 ft 519 kts 170°
2026-05-06 12:18 -19.73703 133.46067 39163 ft 519 kts 170°
2026-05-06 12:19 -19.80547 133.48546 39165 ft 520 kts 170°
2026-05-06 12:19 -19.87396 133.51029 39160 ft 520 kts 170°
2026-05-06 12:20 -19.94234 133.53511 39185 ft 520 kts 170°
2026-05-06 12:20 -20.01086 133.55999 39173 ft 521 kts 170°
2026-05-06 12:21 -20.07891 133.58473 39176 ft 521 kts 170°
2026-05-06 12:21 -20.14748 133.60968 39207 ft 521 kts 170°
2026-05-06 12:22 -20.21611 133.63468 39170 ft 522 kts 170°
2026-05-06 12:22 -20.28481 133.65972 39184 ft 522 kts 170°
2026-05-06 12:23 -20.35352 133.68480 39188 ft 522 kts 170°
2026-05-06 12:23 -20.42221 133.70989 39193 ft 523 kts 171°
2026-05-06 12:24 -20.49106 133.73505 39187 ft 523 kts 170°
2026-05-06 12:24 -20.55998 133.76027 39191 ft 524 kts 170°
2026-05-06 12:25 -20.62894 133.78554 39201 ft 524 kts 171°
2026-05-06 12:25 -20.69786 133.81081 39206 ft 524 kts 171°
2026-05-06 12:26 -20.76690 133.83615 39208 ft 524 kts 171°
2026-05-06 12:26 -20.83593 133.86151 39206 ft 525 kts 171°
2026-05-06 12:27 -20.90495 133.88689 39195 ft 525 kts 171°
2026-05-06 12:27 -20.97399 133.91230 39210 ft 525 kts 171°
2026-05-06 12:28 -21.04300 133.93773 39216 ft 525 kts 171°
2026-05-06 12:28 -21.11210 133.96321 39219 ft 525 kts 171°
2026-05-06 12:29 -21.18119 133.98872 39215 ft 525 kts 171°
2026-05-06 12:29 -21.25030 134.01426 39233 ft 526 kts 171°
2026-05-06 12:30 -21.31953 134.03986 39217 ft 526 kts 171°
2026-05-06 12:30 -21.38877 134.06589 39315 ft 531 kts 168°
2026-05-06 12:31 -21.42303 134.08114 39497 ft 535 kts 166°
2026-05-06 12:31 -21.45695 134.09758 39710 ft 536 kts 165°
2026-05-06 12:31 -21.49035 134.11419 39844 ft 536 kts 165°
2026-05-06 12:31 -21.52414 134.13094 40001 ft 535 kts 165°
2026-05-06 12:32 -21.55799 134.14752 40181 ft 534 kts 165°
2026-05-06 12:32 -21.59187 134.16387 40337 ft 533 kts 165°
2026-05-06 12:32 -21.62567 134.18002 40487 ft 532 kts 166°
2026-05-06 12:32 -21.65950 134.19607 40640 ft 531 kts 166°
2026-05-06 12:33 -21.69335 134.21208 40772 ft 532 kts 166°
2026-05-06 12:33 -21.72719 134.22807 40897 ft 531 kts 166°
2026-05-06 12:33 -21.76101 134.24408 41022 ft 531 kts 166°
2026-05-06 12:33 -21.79482 134.26010 41151 ft 531 kts 166°
2026-05-06 12:34 -21.86255 134.29222 41263 ft 533 kts 166°
2026-05-06 12:34 -21.93044 134.32449 41244 ft 533 kts 166°
2026-05-06 12:35 -21.99827 134.35679 41247 ft 533 kts 166°
2026-05-06 12:35 -22.06615 134.38913 41275 ft 534 kts 166°
2026-05-06 12:36 -22.13412 134.42154 41226 ft 535 kts 166°
2026-05-06 12:36 -22.20213 134.45400 41252 ft 534 kts 166°
2026-05-06 12:37 -22.27015 134.48652 41264 ft 535 kts 166°
2026-05-06 12:37 -22.33819 134.51906 41257 ft 536 kts 166°
2026-05-06 12:38 -22.38601 134.54196 41253 ft 536 kts 166°
2026-05-06 12:38 -22.45370 134.57441 41280 ft 536 kts 166°
2026-05-06 12:39 -22.52183 134.60710 41259 ft 536 kts 166°
2026-05-06 12:39 -22.59000 134.63983 41260 ft 536 kts 166°
2026-05-06 12:40 -22.65825 134.67265 41278 ft 537 kts 165°
2026-05-06 12:40 -22.72649 134.70550 41255 ft 537 kts 165°
2026-05-06 12:41 -22.79474 134.73840 41259 ft 537 kts 165°
2026-05-06 12:41 -22.86297 134.77132 41255 ft 537 kts 165°
2026-05-06 12:42 -22.93120 134.80427 41258 ft 537 kts 165°
2026-05-06 12:42 -22.99944 134.83726 41257 ft 537 kts 165°
2026-05-06 12:43 -23.06765 134.87027 41271 ft 537 kts 165°
2026-05-06 12:43 -23.13592 134.90334 41248 ft 537 kts 165°
2026-05-06 12:44 -23.20413 134.93644 41264 ft 537 kts 165°
2026-05-06 12:44 -23.27199 134.96938 41268 ft 538 kts 165°
2026-05-06 12:45 -23.34073 135.00281 41262 ft 538 kts 165°
2026-05-06 12:46 -23.44282 135.05253 41275 ft 539 kts 165°
2026-05-06 12:46 -23.51122 135.08590 41275 ft 539 kts 165°
2026-05-06 12:47 -23.57968 135.11931 41270 ft 539 kts 165°
2026-05-06 12:47 -23.64809 135.15271 41276 ft 539 kts 165°
2026-05-06 12:48 -23.71645 135.18622 41275 ft 539 kts 165°
2026-05-06 12:48 -23.78483 135.21972 41277 ft 538 kts 165°
2026-05-06 12:49 -23.85317 135.25320 41279 ft 539 kts 165°
2026-05-06 12:49 -23.92156 135.28676 41277 ft 539 kts 165°
2026-05-06 12:50 -23.98995 135.32038 41280 ft 539 kts 165°
2026-05-06 12:50 -24.05828 135.35401 41286 ft 539 kts 164°
2026-05-06 12:51 -24.12589 135.39042 41289 ft 543 kts 161°
2026-05-06 12:51 -24.19293 135.42879 41281 ft 544 kts 160°
2026-05-06 12:52 -24.26007 135.46696 41282 ft 544 kts 161°
2026-05-06 12:52 -24.32739 135.50476 41300 ft 543 kts 161°
2026-05-06 12:53 -24.39465 135.54239 41283 ft 543 kts 161°
2026-05-06 12:53 -24.46143 135.57978 41298 ft 543 kts 161°
2026-05-06 12:54 -24.52870 135.61750 41286 ft 543 kts 161°
2026-05-06 12:54 -24.59599 135.65529 41308 ft 543 kts 161°
2026-05-06 12:55 -24.66324 135.69312 41283 ft 543 kts 161°
2026-05-06 12:55 -24.73045 135.73097 41283 ft 543 kts 161°
2026-05-06 12:56 -24.79767 135.76887 41284 ft 543 kts 161°
2026-05-06 12:56 -24.86485 135.80678 41284 ft 543 kts 161°
2026-05-06 12:57 -24.93202 135.84475 41286 ft 542 kts 160°
2026-05-06 12:57 -24.99915 135.88274 41283 ft 542 kts 160°
2026-05-06 12:58 -25.06627 135.92077 41283 ft 542 kts 160°
2026-05-06 12:58 -25.13337 135.95883 41284 ft 542 kts 160°
2026-05-06 12:59 -25.18910 135.99047 41286 ft 542 kts 160°
2026-05-06 12:59 -25.25614 136.02860 41284 ft 542 kts 160°
2026-05-06 13:00 -25.32314 136.06673 41282 ft 542 kts 160°
2026-05-06 13:00 -25.39013 136.10491 41284 ft 542 kts 160°
2026-05-06 13:01 -25.45709 136.14313 41285 ft 542 kts 160°
2026-05-06 13:01 -25.52408 136.18141 41285 ft 542 kts 160°
2026-05-06 13:02 -25.59106 136.21973 41285 ft 542 kts 160°
2026-05-06 13:02 -25.65810 136.25813 41284 ft 542 kts 160°
2026-05-06 13:03 -25.72514 136.29659 41296 ft 542 kts 160°
2026-05-06 13:03 -25.79212 136.33506 41284 ft 542 kts 160°
2026-05-06 13:04 -25.85900 136.37353 41286 ft 541 kts 160°
2026-05-06 13:04 -25.92593 136.41206 41284 ft 542 kts 160°
2026-05-06 13:05 -25.99285 136.45063 41284 ft 542 kts 160°
2026-05-06 13:05 -26.05977 136.48926 41287 ft 541 kts 159°
2026-05-06 13:06 -26.12652 136.52786 41284 ft 540 kts 159°
2026-05-06 13:06 -26.19319 136.56646 41287 ft 540 kts 159°
2026-05-06 13:07 -26.25987 136.60509 41287 ft 541 kts 159°
2026-05-06 13:07 -26.32617 136.64355 41294 ft 540 kts 159°
2026-05-06 13:08 -26.39269 136.68222 41282 ft 539 kts 159°
2026-05-06 13:08 -26.45912 136.72088 41286 ft 539 kts 159°
2026-05-06 13:09 -26.52557 136.75958 41289 ft 539 kts 159°
2026-05-06 13:09 -26.59204 136.79835 41314 ft 539 kts 159°
2026-05-06 13:10 -26.65846 136.83715 41287 ft 538 kts 159°
2026-05-06 13:10 -26.72472 136.87592 41284 ft 537 kts 159°
2026-05-06 13:11 -26.79093 136.91469 41288 ft 537 kts 159°
2026-05-06 13:11 -26.85716 136.95352 41286 ft 537 kts 159°
2026-05-06 13:12 -26.92333 136.99236 41279 ft 536 kts 158°
2026-05-06 13:12 -26.98933 137.03118 41296 ft 535 kts 158°
2026-05-06 13:13 -27.05524 137.07000 41284 ft 535 kts 158°
2026-05-06 13:13 -27.12121 137.10889 41296 ft 535 kts 158°
2026-05-06 13:14 -27.18666 137.14752 41293 ft 535 kts 158°
2026-05-06 13:14 -27.25231 137.18635 41282 ft 533 kts 158°
2026-05-06 13:15 -27.31790 137.22517 41280 ft 533 kts 158°
2026-05-06 13:15 -27.38346 137.26403 41287 ft 532 kts 158°
2026-05-06 13:16 -27.44898 137.30291 41311 ft 532 kts 157°
2026-05-06 13:16 -27.51434 137.34185 41286 ft 531 kts 156°
2026-05-06 13:17 -27.57827 137.38392 41287 ft 533 kts 153°
2026-05-06 13:17 -27.64151 137.42764 41287 ft 533 kts 153°
2026-05-06 13:18 -27.70493 137.47110 41289 ft 533 kts 154°
2026-05-06 13:18 -27.76850 137.51418 41295 ft 532 kts 153°
2026-05-06 13:19 -27.83187 137.55700 41291 ft 529 kts 153°
2026-05-06 13:19 -27.89504 137.59973 41287 ft 529 kts 153°
2026-05-06 13:20 -27.95821 137.64253 41285 ft 529 kts 153°
2026-05-06 13:20 -28.02138 137.68540 41288 ft 530 kts 153°
2026-05-06 13:21 -28.08451 137.72832 41287 ft 528 kts 153°
2026-05-06 13:21 -28.14736 137.77112 41293 ft 527 kts 153°
2026-05-06 13:22 -28.20972 137.81363 41287 ft 527 kts 153°
2026-05-06 13:22 -28.27256 137.85652 41287 ft 527 kts 153°
2026-05-06 13:23 -28.33543 137.89949 41287 ft 528 kts 153°
2026-05-06 13:23 -28.39831 137.94254 41286 ft 528 kts 153°
2026-05-06 13:24 -28.46116 137.98562 41289 ft 528 kts 153°
2026-05-06 13:24 -28.52399 138.02875 41302 ft 528 kts 153°
2026-05-06 13:25 -28.58690 138.07199 41304 ft 529 kts 153°
2026-05-06 13:25 -28.64980 138.11529 41301 ft 528 kts 153°
2026-05-06 13:26 -28.71253 138.15855 41295 ft 526 kts 153°
2026-05-06 13:26 -28.77513 138.20177 41298 ft 526 kts 153°
2026-05-06 13:27 -28.83775 138.24506 41295 ft 526 kts 153°
2026-05-06 13:27 -28.90039 138.28842 41295 ft 527 kts 153°
2026-05-06 13:28 -28.96302 138.33184 41297 ft 526 kts 153°
2026-05-06 13:28 -29.02558 138.37529 41299 ft 526 kts 153°
2026-05-06 13:29 -29.08806 138.41873 41295 ft 526 kts 153°
2026-05-06 13:29 -29.15012 138.46194 41301 ft 526 kts 153°
2026-05-06 13:30 -29.21264 138.50553 41297 ft 526 kts 153°
2026-05-06 13:30 -29.27515 138.54919 41298 ft 526 kts 152°
2026-05-06 13:31 -29.33741 138.59334 41298 ft 527 kts 151°
2026-05-06 13:31 -29.39880 138.63938 41295 ft 527 kts 150°
2026-05-06 13:32 -29.46007 138.68573 41296 ft 528 kts 150°
2026-05-06 13:32 -29.52150 138.73192 41317 ft 528 kts 150°
2026-05-06 13:33 -29.58300 138.77801 41298 ft 528 kts 150°
2026-05-06 13:33 -29.64453 138.82414 41298 ft 528 kts 150°
2026-05-06 13:34 -29.70610 138.87038 41302 ft 528 kts 150°
2026-05-06 13:34 -29.76761 138.91666 41302 ft 529 kts 150°
2026-05-06 13:35 -29.82918 138.96305 41322 ft 529 kts 150°
2026-05-06 13:35 -29.89024 139.00913 41303 ft 528 kts 150°
2026-05-06 13:36 -29.95172 139.05560 41302 ft 528 kts 150°
2026-05-06 13:36 -30.01313 139.10207 41302 ft 528 kts 150°
2026-05-06 13:37 -30.07460 139.14867 41305 ft 528 kts 150°
2026-05-06 13:37 -30.13602 139.19530 41314 ft 529 kts 150°
2026-05-06 13:38 -30.19739 139.24196 41306 ft 528 kts 150°
2026-05-06 13:38 -30.25876 139.28869 41305 ft 528 kts 150°
2026-05-06 13:39 -30.32004 139.33543 41306 ft 528 kts 150°
2026-05-06 13:39 -30.38132 139.38223 41311 ft 528 kts 150°
2026-05-06 13:40 -30.44261 139.42912 41323 ft 528 kts 150°
2026-05-06 13:40 -30.50378 139.47599 41311 ft 527 kts 150°
2026-05-06 13:41 -30.56488 139.52288 41310 ft 526 kts 150°
2026-05-06 13:41 -30.62600 139.56984 41311 ft 527 kts 150°
2026-05-06 13:42 -30.68716 139.61691 41309 ft 527 kts 150°
2026-05-06 13:42 -30.74831 139.66405 41302 ft 527 kts 150°
2026-05-06 13:43 -30.80935 139.71118 41309 ft 526 kts 150°
2026-05-06 13:43 -30.87034 139.75834 41302 ft 526 kts 150°
2026-05-06 13:44 -30.93135 139.80558 41310 ft 527 kts 150°
2026-05-06 13:44 -30.99235 139.85290 41316 ft 527 kts 150°
2026-05-06 13:45 -31.05333 139.90027 41319 ft 526 kts 149°
2026-05-06 13:45 -31.14462 139.97135 41312 ft 526 kts 149°
2026-05-06 13:46 -31.20542 140.01876 41311 ft 526 kts 149°
2026-05-06 13:46 -31.26628 140.06630 41311 ft 526 kts 149°
2026-05-06 13:47 -31.32667 140.11355 41311 ft 526 kts 149°
2026-05-06 13:47 -31.38745 140.16117 41312 ft 526 kts 149°
2026-05-06 13:48 -31.44824 140.20889 41311 ft 526 kts 149°
2026-05-06 13:48 -31.49919 140.24893 41309 ft 527 kts 149°
2026-05-06 13:49 -31.56007 140.29685 41315 ft 527 kts 149°
2026-05-06 13:49 -31.62092 140.34483 41314 ft 527 kts 149°
2026-05-06 13:50 -31.68169 140.39282 41314 ft 526 kts 149°
2026-05-06 13:50 -31.74232 140.44078 41316 ft 525 kts 149°
2026-05-06 13:51 -31.80295 140.48881 41310 ft 525 kts 149°
2026-05-06 13:51 -31.86315 140.53658 41311 ft 525 kts 149°
2026-05-06 13:52 -31.92375 140.58474 41314 ft 526 kts 149°
2026-05-06 13:52 -31.98432 140.63296 41313 ft 525 kts 149°
2026-05-06 13:53 -32.04475 140.68114 41310 ft 525 kts 149°
2026-05-06 13:53 -32.10519 140.72941 41312 ft 525 kts 149°
2026-05-06 13:54 -32.16566 140.77778 41313 ft 525 kts 149°
2026-05-06 13:54 -32.22608 140.82619 41311 ft 525 kts 149°
2026-05-06 13:55 -32.28644 140.87463 41305 ft 524 kts 149°
2026-05-06 13:55 -32.34677 140.92314 41301 ft 524 kts 149°
2026-05-06 13:56 -32.40712 140.97172 41299 ft 525 kts 149°
2026-05-06 13:56 -32.46742 141.02036 41302 ft 525 kts 149°
2026-05-06 13:57 -32.52739 141.06975 41305 ft 525 kts 147°
2026-05-06 13:57 -32.58645 141.12064 41307 ft 525 kts 147°
2026-05-06 13:58 -32.64547 141.17169 41304 ft 525 kts 147°
2026-05-06 13:58 -32.70453 141.22255 41301 ft 525 kts 147°
2026-05-06 13:59 -32.76367 141.27337 41301 ft 525 kts 147°
2026-05-06 13:59 -32.82280 141.32425 41302 ft 525 kts 147°
2026-05-06 14:00 -32.88149 141.37483 41300 ft 524 kts 147°
2026-05-06 14:00 -32.94054 141.42582 41296 ft 524 kts 147°
2026-05-06 14:01 -32.99958 141.47689 41299 ft 524 kts 147°
2026-05-06 14:01 -33.05860 141.52803 41299 ft 524 kts 147°
2026-05-06 14:02 -33.11760 141.57925 41296 ft 524 kts 147°
2026-05-06 14:02 -33.17657 141.63052 41297 ft 524 kts 147°
2026-05-06 14:03 -33.23550 141.68185 41290 ft 524 kts 147°
2026-05-06 14:03 -33.29440 141.73324 41287 ft 524 kts 147°
2026-05-06 14:04 -33.35328 141.78469 41290 ft 524 kts 147°
2026-05-06 14:04 -33.41210 141.83618 41293 ft 524 kts 147°
2026-05-06 14:05 -33.47097 141.88781 41299 ft 524 kts 146°
2026-05-06 14:05 -33.52981 141.93950 41292 ft 524 kts 146°
2026-05-06 14:06 -33.58859 141.99122 41290 ft 524 kts 146°
2026-05-06 14:06 -33.64737 142.04303 41290 ft 524 kts 146°
2026-05-06 14:07 -33.70570 142.09454 41288 ft 524 kts 146°
2026-05-06 14:07 -33.76446 142.14652 41306 ft 524 kts 146°
2026-05-06 14:08 -33.82320 142.19857 41289 ft 524 kts 146°
2026-05-06 14:08 -33.88192 142.25069 41287 ft 524 kts 146°
2026-05-06 14:09 -33.94061 142.30287 41290 ft 524 kts 146°
2026-05-06 14:09 -33.99929 142.35514 41287 ft 525 kts 146°
2026-05-06 14:10 -34.05803 142.40755 41287 ft 525 kts 146°
2026-05-06 14:10 -34.11670 142.46001 41282 ft 525 kts 146°
2026-05-06 14:11 -34.17535 142.51253 41282 ft 525 kts 146°
2026-05-06 14:11 -34.23397 142.56511 41281 ft 525 kts 146°
2026-05-06 14:12 -34.29260 142.61780 41282 ft 525 kts 146°
2026-05-06 14:12 -34.35122 142.67057 41281 ft 525 kts 146°
2026-05-06 14:13 -34.40980 142.72340 41281 ft 525 kts 146°
2026-05-06 14:13 -34.46838 142.77633 41277 ft 525 kts 146°
2026-05-06 14:14 -34.52696 142.82935 41274 ft 526 kts 146°
2026-05-06 14:14 -34.58554 142.88247 41273 ft 526 kts 146°
2026-05-06 14:15 -34.64411 142.93567 41274 ft 526 kts 146°
2026-05-06 14:15 -34.70266 142.98895 41277 ft 526 kts 146°
2026-05-06 14:16 -34.76116 143.04229 41273 ft 526 kts 146°
2026-05-06 14:16 -34.81929 143.09538 41265 ft 526 kts 146°
2026-05-06 14:17 -34.87819 143.14927 41261 ft 526 kts 146°
2026-05-06 14:17 -34.93624 143.20249 41259 ft 526 kts 146°
2026-05-06 14:18 -34.99639 143.25289 41271 ft 524 kts 151°
2026-05-06 14:18 -35.05819 143.29997 41265 ft 524 kts 152°
2026-05-06 14:19 -35.12022 143.34660 41261 ft 524 kts 152°
2026-05-06 14:19 -35.18230 143.39333 41263 ft 524 kts 152°
2026-05-06 14:20 -35.24429 143.44018 41264 ft 524 kts 152°
2026-05-06 14:20 -35.30629 143.48717 41260 ft 524 kts 151°
2026-05-06 14:21 -35.36823 143.53422 40972 ft 521 kts 151°
2026-05-06 14:21 -35.39898 143.55761 40719 ft 520 kts 151°
2026-05-06 14:21 -35.42967 143.58097 40478 ft 519 kts 151°
2026-05-06 14:22 -35.46029 143.60430 40245 ft 518 kts 151°
2026-05-06 14:22 -35.49090 143.62764 40007 ft 517 kts 151°
2026-05-06 14:22 -35.52145 143.65095 39771 ft 517 kts 151°
2026-05-06 14:22 -35.55198 143.67426 39561 ft 516 kts 151°
2026-05-06 14:23 -35.58241 143.69753 39336 ft 516 kts 151°
2026-05-06 14:23 -35.61287 143.72084 39112 ft 515 kts 151°
2026-05-06 14:23 -35.64323 143.74409 38878 ft 514 kts 151°
2026-05-06 14:23 -35.67357 143.76735 38543 ft 512 kts 151°
2026-05-06 14:24 -35.70363 143.79043 37978 ft 509 kts 151°
2026-05-06 14:24 -35.73361 143.81346 37345 ft 507 kts 151°
2026-05-06 14:24 -35.76351 143.83644 36721 ft 507 kts 151°
2026-05-06 14:24 -35.79344 143.85946 36057 ft 507 kts 151°
2026-05-06 14:25 -35.82333 143.88247 35434 ft 507 kts 151°
2026-05-06 14:25 -35.85280 143.90516 34931 ft 504 kts 150°
2026-05-06 14:25 -35.88242 143.92801 34429 ft 502 kts 150°
2026-05-06 14:25 -35.91198 143.95084 33880 ft 499 kts 150°
2026-05-06 14:26 -35.94131 143.97353 33357 ft 496 kts 150°
2026-05-06 14:26 -35.97043 143.99606 32863 ft 492 kts 150°
2026-05-06 14:26 -35.99933 144.01845 32369 ft 488 kts 150°
2026-05-06 14:26 -36.02797 144.04065 31883 ft 485 kts 150°
2026-05-06 14:27 -36.05644 144.06273 31408 ft 481 kts 150°
2026-05-06 14:27 -36.08469 144.08466 30921 ft 478 kts 150°
2026-05-06 14:27 -36.11278 144.10648 30449 ft 475 kts 150°
2026-05-06 14:27 -36.14065 144.12815 29919 ft 472 kts 150°
2026-05-06 14:28 -36.16831 144.14968 29429 ft 467 kts 150°
2026-05-06 14:28 -36.19571 144.17103 28955 ft 463 kts 150°
2026-05-06 14:28 -36.22281 144.19216 28493 ft 458 kts 150°
2026-05-06 14:28 -36.24967 144.21312 28018 ft 454 kts 150°
2026-05-06 14:29 -36.27628 144.23391 27556 ft 450 kts 150°
2026-05-06 14:29 -36.30267 144.25452 27094 ft 446 kts 150°
2026-05-06 14:29 -36.32884 144.27499 26629 ft 443 kts 150°
2026-05-06 14:29 -36.35479 144.29530 26160 ft 440 kts 150°
2026-05-06 14:30 -36.38061 144.31552 25715 ft 437 kts 150°
2026-05-06 14:30 -36.40627 144.33563 25237 ft 435 kts 150°
2026-05-06 14:30 -36.43181 144.35567 24769 ft 433 kts 150°
2026-05-06 14:30 -36.45718 144.37559 24309 ft 431 kts 150°
2026-05-06 14:31 -36.48241 144.39541 23833 ft 428 kts 150°
2026-05-06 14:31 -36.50755 144.41518 23310 ft 426 kts 150°
2026-05-06 14:31 -36.53247 144.43479 22836 ft 422 kts 150°
2026-05-06 14:31 -36.55712 144.45421 22359 ft 418 kts 150°
2026-05-06 14:32 -36.58158 144.47349 21911 ft 414 kts 150°
2026-05-06 14:32 -36.60581 144.49261 21450 ft 411 kts 149°
2026-05-06 14:32 -36.62983 144.51156 20997 ft 407 kts 149°
2026-05-06 14:32 -36.65365 144.53037 20551 ft 404 kts 149°
2026-05-06 14:33 -36.67733 144.54909 20094 ft 402 kts 149°
2026-05-06 14:33 -36.70088 144.56772 19641 ft 399 kts 149°
2026-05-06 14:33 -36.72426 144.58624 19190 ft 397 kts 149°
2026-05-06 14:33 -36.74751 144.60465 18743 ft 395 kts 149°
2026-05-06 14:34 -36.77066 144.62301 18265 ft 393 kts 149°
2026-05-06 14:34 -36.79384 144.64060 17798 ft 388 kts 155°
2026-05-06 14:34 -36.81886 144.65219 17349 ft 381 kts 168°
2026-05-06 14:34 -36.84455 144.65924 16906 ft 377 kts 172°
2026-05-06 14:35 -36.86158 144.66330 16620 ft 374 kts 172°
2026-05-06 14:35 -36.88708 144.66915 16191 ft 371 kts 173°
2026-05-06 14:35 -36.92060 144.67668 15632 ft 368 kts 173°
2026-05-06 14:35 -36.94575 144.68228 15209 ft 366 kts 173°
2026-05-06 14:36 -36.97069 144.68782 14784 ft 363 kts 173°
2026-05-06 14:36 -36.99550 144.69332 14361 ft 361 kts 173°
2026-05-06 14:36 -37.02013 144.69878 13932 ft 358 kts 173°
2026-05-06 14:36 -37.04454 144.70419 13490 ft 354 kts 173°
2026-05-06 14:37 -37.06089 144.70782 13207 ft 352 kts 173°
2026-05-06 14:37 -37.08453 144.71306 12796 ft 348 kts 173°
2026-05-06 14:37 -37.10833 144.71835 12383 ft 345 kts 173°
2026-05-06 14:37 -37.13183 144.72357 11983 ft 342 kts 173°
2026-05-06 14:38 -37.15515 144.72875 11570 ft 338 kts 173°
2026-05-06 14:38 -37.17816 144.73394 11151 ft 335 kts 172°
2026-05-06 14:38 -37.20096 144.73988 10735 ft 334 kts 171°
2026-05-06 14:38 -37.22349 144.74604 10454 ft 326 kts 171°
2026-05-06 14:39 -37.24517 144.75195 10328 ft 312 kts 171°
2026-05-06 14:39 -37.26595 144.75758 10199 ft 299 kts 171°
2026-05-06 14:39 -37.28616 144.76300 9944 ft 298 kts 171°
2026-05-06 14:39 -37.30647 144.76841 9604 ft 298 kts 171°
2026-05-06 14:40 -37.32670 144.77381 9273 ft 296 kts 171°
2026-05-06 14:40 -37.34679 144.77887 8987 ft 293 kts 174°
2026-05-06 14:40 -37.36691 144.78234 8734 ft 291 kts 176°
2026-05-06 14:40 -37.38700 144.78552 8348 ft 289 kts 176°
2026-05-06 14:41 -37.40682 144.78877 8031 ft 286 kts 176°
2026-05-06 14:41 -37.42649 144.79207 7772 ft 284 kts 175°
2026-05-06 14:41 -37.44603 144.79544 7544 ft 282 kts 175°
2026-05-06 14:41 -37.46540 144.79884 7294 ft 281 kts 175°
2026-05-06 14:42 -37.48465 144.80270 7042 ft 279 kts 173°
2026-05-06 14:42 -37.50363 144.80697 6793 ft 277 kts 173°
2026-05-06 14:42 -37.52256 144.81126 6539 ft 275 kts 173°
2026-05-06 14:42 -37.54094 144.81773 6280 ft 277 kts 158°
2026-05-06 14:43 -37.55571 144.83233 6090 ft 273 kts 130°
2026-05-06 14:43 -37.56345 144.85378 5866 ft 268 kts 101°
2026-05-06 14:43 -37.56546 144.87683 5635 ft 262 kts 94°
2026-05-06 14:43 -37.56648 144.89965 5409 ft 260 kts 94°
2026-05-06 14:44 -37.56750 144.92191 5252 ft 250 kts 95°
2026-05-06 14:44 -37.56855 144.94333 5113 ft 240 kts 95°
2026-05-06 14:44 -37.56959 144.96391 4965 ft 230 kts 95°
2026-05-06 14:45 -37.57192 145.00266 4643 ft 214 kts 101°
2026-05-06 14:45 -37.57727 145.01979 4328 ft 210 kts 129°
2026-05-06 14:45 -37.58853 145.03057 4052 ft 202 kts 162°
2026-05-06 14:45 -37.60215 145.03289 3981 ft 196 kts 185°
2026-05-06 14:46 -37.61557 145.03189 3749 ft 192 kts 188°
2026-05-06 14:46 -37.62888 145.03054 3529 ft 194 kts 189°
2026-05-06 14:46 -37.64254 145.02918 3450 ft 196 kts 188°
2026-05-06 14:46 -37.65572 145.02701 3233 ft 188 kts 199°
2026-05-06 14:47 -37.66612 145.01851 3043 ft 174 kts 236°